�N����,����,�g�[���i�䏊�j���x,�g�[�����x,��g�[���i���ցj���x,����
 2004/02/01, 0:00,20,40,9.8,-9.9
 2004/02/01, 0:15,19.8,44,9.6,-9.9
 2004/02/01, 0:30,19.2,44,9.5,-9.9
 2004/02/01, 0:45,18.9,43,9.2,-9.9
 2004/02/01, 1:00,18.4,43,9.1,-9.9
 2004/02/01, 1:15,18,43,9.1,-9.9
 2004/02/01, 1:30,17.8,43,8.8,-9.9
 2004/02/01, 1:45,17.4,43,8.6,-9.9
 2004/02/01, 2:00,17.2,43,8.4,-9.9
 2004/02/01, 2:15,17.1,43,8.3,-9.9
 2004/02/01, 2:30,16.8,43,8.1,-9.9
 2004/02/01, 2:45,16.4,44,8.1,-9.9
 2004/02/01, 3:00,16.3,44,8,-9.9
 2004/02/01, 3:15,16.2,44,7.9,-9.9
 2004/02/01, 3:30,16,44,7.7,-9.9
 2004/02/01, 3:45,15.8,44,7.6,-9.9
 2004/02/01, 4:00,15.4,44,7.5,-9.9
 2004/02/01, 4:15,15.2,44,7.4,-9.9
 2004/02/01, 4:30,15,44,7.3,-9.9
 2004/02/01, 4:45,14.8,45,7.1,-9.9
 2004/02/01, 5:00,14.5,44,6.9,-9.9
 2004/02/01, 5:15,14.4,45,6.8,-9.9
 2004/02/01, 5:30,14.1,45,6.8,-9.9
 2004/02/01, 5:45,13.9,45,6.7,-9.9
 2004/02/01, 6:00,13.5,45,6.6,-9.9
 2004/02/01, 6:15,13.4,45,6.5,-9.9
 2004/02/01, 6:30,13.2,45,6.4,-9.9
 2004/02/01, 6:45,15.4,46,6.7,-9.9
 2004/02/01, 7:00,17.1,44,6.5,-9.9
 2004/02/01, 7:15,18.4,42,6.4,-9.9
 2004/02/01, 7:30,19,39,6.5,-9.9
 2004/02/01, 7:45,19.8,37,6.6,-9.9
 2004/02/01, 8:00,20.4,35,6.7,-9.9
 2004/02/01, 8:15,19,35,6.8,-9.9
 2004/02/01, 8:30,17.8,35,6.8,-9.9
 2004/02/01, 8:45,17.7,35,6.2,-9.9
 2004/02/01, 9:00,19.8,35,6.8,-9.9
 2004/02/01, 9:15,20.3,36,7.3,-9.9
 2004/02/01, 9:30,20.2,37,7.6,-9.9
 2004/02/01, 9:45,20.4,37,8.4,-9.9
 2004/02/01,10:00,20.4,38,8.8,-9.9
 2004/02/01,10:15,19.3,40,9.4,-9.9
 2004/02/01,10:30,18.4,40,9.5,-9.9
 2004/02/01,10:45,18.1,40,10,-9.9
 2004/02/01,11:00,19.8,37,10.1,-9.9
 2004/02/01,11:15,19.2,38,10.5,-9.9
 2004/02/01,11:30,18.4,38,10.5,-9.9
 2004/02/01,11:45,17.9,38,10.6,-9.9
 2004/02/01,12:00,17.8,38,10.7,-9.9
 2004/02/01,12:15,17.4,38,10.7,-9.9
 2004/02/01,12:30,17.2,37,10.8,-9.9
 2004/02/01,12:45,16.9,37,10.8,-9.9
 2004/02/01,13:00,16.7,37,10.9,-9.9
 2004/02/01,13:15,16.7,37,10.9,-9.9
 2004/02/01,13:30,16.5,37,11.1,-9.9
 2004/02/01,13:45,16.3,37,11.1,-9.9
 2004/02/01,14:00,16.2,37,11.3,-9.9
 2004/02/01,14:15,16.1,38,11.4,-9.9
 2004/02/01,14:30,16,37,11.3,-9.9
 2004/02/01,14:45,15.9,37,11.4,-9.9
 2004/02/01,15:00,15.9,37,11.4,-9.9
 2004/02/01,15:15,15.7,37,11.4,-9.9
 2004/02/01,15:30,15.7,37,11.4,-9.9
 2004/02/01,15:45,15.6,37,11.5,-9.9
 2004/02/01,16:00,15.5,37,11.6,-9.9
 2004/02/01,16:15,15.5,38,11.5,-9.9
 2004/02/01,16:30,15.4,38,11.5,-9.9
 2004/02/01,16:45,15.2,38,11.6,-9.9
 2004/02/01,17:00,15.4,38,11.6,-9.9
 2004/02/01,17:15,15.2,38,11.4,-9.9
 2004/02/01,17:30,15.1,38,11.4,-9.9
 2004/02/01,17:45,15,38,11.3,-9.9
 2004/02/01,18:00,14.9,39,11.4,-9.9
 2004/02/01,18:15,14.7,39,11.3,-9.9
 2004/02/01,18:30,14.7,39,11.2,-9.9
 2004/02/01,18:45,14.5,39,11.1,-9.9
 2004/02/01,19:00,14.6,39,11.1,-9.9
 2004/02/01,19:15,14.4,39,11,-9.9
 2004/02/01,19:30,14.3,40,10.8,-9.9
 2004/02/01,19:45,14.1,40,10.7,-9.9
 2004/02/01,20:00,14,40,10.7,-9.9
 2004/02/01,20:15,14,40,10.5,-9.9
 2004/02/01,20:30,17.8,40,10.6,-9.9
 2004/02/01,20:45,18.7,40,10.9,-9.9
 2004/02/01,21:00,19.7,42,11,-9.9
 2004/02/01,21:15,19,44,11,-9.9
 2004/02/01,21:30,17.8,46,11.1,-9.9
 2004/02/01,21:45,17.5,46,11.1,-9.9
 2004/02/01,22:00,17.1,47,11.4,-9.9
 2004/02/01,22:15,16.7,47,11.1,-9.9
 2004/02/01,22:30,16.6,48,11.1,-9.9
 2004/02/01,22:45,16.5,47,11.1,-9.9
 2004/02/01,23:00,16.2,47,11.1,-9.9
 2004/02/01,23:15,16,47,11.2,-9.9
 2004/02/01,23:30,15.8,47,11.1,-9.9
 2004/02/01,23:45,15.8,47,11.1,-9.9
 2004/02/02, 0:00,15.7,46,11.2,-9.9
 2004/02/02, 0:15,15.4,46,11,-9.9
 2004/02/02, 0:30,15.4,47,11.1,-9.9
 2004/02/02, 0:45,15.5,47,11,-9.9
 2004/02/02, 1:00,15.5,46,11,-9.9
 2004/02/02, 1:15,15.4,47,11,-9.9
 2004/02/02, 1:30,15.1,47,10.9,-9.9
 2004/02/02, 1:45,15,48,10.9,-9.9
 2004/02/02, 2:00,15.4,52,10.9,-9.9
 2004/02/02, 2:15,15.3,51,10.9,-9.9
 2004/02/02, 2:30,14.9,51,10.9,-9.9
 2004/02/02, 2:45,14.8,50,10.8,-9.9
 2004/02/02, 3:00,14.6,50,10.7,-9.9
 2004/02/02, 3:15,14.6,50,10.7,-9.9
 2004/02/02, 3:30,14.5,50,10.8,-9.9
 2004/02/02, 3:45,14.4,50,10.6,-9.9
 2004/02/02, 4:00,14.3,50,10.7,-9.9
 2004/02/02, 4:15,14.4,49,10.6,-9.9
 2004/02/02, 4:30,14.2,49,10.6,-9.9
 2004/02/02, 4:45,14.1,49,10.7,-9.9
 2004/02/02, 5:00,14,49,10.6,-9.9
 2004/02/02, 5:15,13.9,49,10.6,-9.9
 2004/02/02, 5:30,13.9,49,10.6,-9.9
 2004/02/02, 5:45,13.7,49,10.6,-9.9
 2004/02/02, 6:00,13.9,51,10.6,-9.9
 2004/02/02, 6:15,13.9,54,10.7,-9.9
 2004/02/02, 6:30,15.9,52,10.7,-9.9
 2004/02/02, 6:45,18.2,52,10.7,-9.9
 2004/02/02, 7:00,19.2,49,10.9,-9.9
 2004/02/02, 7:15,20.4,47,10.9,-9.9
 2004/02/02, 7:30,20.8,44,11.1,-9.9
 2004/02/02, 7:45,21.8,42,11.1,-9.9
 2004/02/02, 8:00,20.3,42,11.1,-9.9
 2004/02/02, 8:15,19.3,44,11.2,-9.9
 2004/02/02, 8:30,18.8,45,11.2,-9.9
 2004/02/02, 8:45,18.4,46,11.2,-9.9
 2004/02/02, 9:00,18.1,49,11.2,-9.9
 2004/02/02, 9:15,18,54,11.2,-9.9
 2004/02/02, 9:30,17.5,52,11.4,-9.9
 2004/02/02, 9:45,17.3,51,11.6,-9.9
 2004/02/02,10:00,17,51,11.8,-9.9
 2004/02/02,10:15,16.6,51,11.8,-9.9
 2004/02/02,10:30,16.4,51,11.8,-9.9
 2004/02/02,10:45,16.3,52,12,-9.9
 2004/02/02,11:00,15.9,52,12,-9.9
 2004/02/02,11:15,15.8,53,12,-9.9
 2004/02/02,11:30,15.6,53,12.1,-9.9
 2004/02/02,11:45,15.6,53,12.1,-9.9
 2004/02/02,12:00,15.4,54,12.2,-9.9
 2004/02/02,12:15,15.4,54,12.3,-9.9
 2004/02/02,12:30,15.4,54,12.4,-9.9
 2004/02/02,12:45,15.2,54,12.5,-9.9
 2004/02/02,13:00,15.2,54,12.4,-9.9
 2004/02/02,13:15,15.1,54,12.4,-9.9
 2004/02/02,13:30,15.1,54,12.3,-9.9
 2004/02/02,13:45,15.1,55,12.2,-9.9
 2004/02/02,14:00,14.9,55,12.2,-9.9
 2004/02/02,14:15,14.8,55,12.2,-9.9
 2004/02/02,14:30,14.8,56,12.1,-9.9
 2004/02/02,14:45,14.7,56,12.1,-9.9
 2004/02/02,15:00,14.6,56,12.1,-9.9
 2004/02/02,15:15,14.5,56,12.1,-9.9
 2004/02/02,15:30,14.6,56,12.1,-9.9
 2004/02/02,15:45,14.4,57,12.2,-9.9
 2004/02/02,16:00,14.5,57,12.1,-9.9
 2004/02/02,16:15,14.6,59,12.2,-9.9
 2004/02/02,16:30,17.6,58,12.1,-9.9
 2004/02/02,16:45,20.1,57,12.2,-9.9
 2004/02/02,17:00,21,58,12.2,-9.9
 2004/02/02,17:15,19.1,59,12.2,-9.9
 2004/02/02,17:30,19.2,60,12.2,-9.9
 2004/02/02,17:45,21.3,57,12.2,-9.9
 2004/02/02,18:00,22.1,56,12.3,-9.9
 2004/02/02,18:15,22.1,57,12.3,-9.9
 2004/02/02,18:30,22.4,58,12.3,-9.9
 2004/02/02,18:45,22.4,57,12.3,-9.9
 2004/02/02,19:00,21.7,58,12.3,-9.9
 2004/02/02,19:15,21,58,12.3,-9.9
 2004/02/02,19:30,20.5,59,12.4,-9.9
 2004/02/02,19:45,20.3,60,12.4,-9.9
 2004/02/02,20:00,20.7,60,12.4,-9.9
 2004/02/02,20:15,22.2,58,12.5,-9.9
 2004/02/02,20:30,22.4,58,12.5,-9.9
 2004/02/02,20:45,21.2,58,12.4,-9.9
 2004/02/02,21:00,21,58,12.5,-9.9
 2004/02/02,21:15,20.6,59,12.6,-9.9
 2004/02/02,21:30,20.3,57,12.7,-9.9
 2004/02/02,21:45,20,56,12.4,-9.9
 2004/02/02,22:00,19.7,56,12.5,-9.9
 2004/02/02,22:15,19.5,55,12.5,-9.9
 2004/02/02,22:30,19.1,55,12.5,-9.9
 2004/02/02,22:45,19.1,55,12.3,-9.9
 2004/02/02,23:00,18.6,55,12.5,-9.9
 2004/02/02,23:15,18.6,55,12.4,-9.9
 2004/02/02,23:30,18.3,55,12.3,-9.9
 2004/02/02,23:45,18,55,12.3,-9.9
 2004/02/03, 0:00,17.8,56,12.3,-9.9
 2004/02/03, 0:15,17.6,55,12.2,-9.9
 2004/02/03, 0:30,17.4,56,12.2,-9.9
 2004/02/03, 0:45,17.1,56,12.1,-9.9
 2004/02/03, 1:00,17,56,12,-9.9
 2004/02/03, 1:15,16.9,56,11.9,-9.9
 2004/02/03, 1:30,16.7,55,11.9,-9.9
 2004/02/03, 1:45,16.5,56,11.8,-9.9
 2004/02/03, 2:00,16.4,56,11.8,-9.9
 2004/02/03, 2:15,16.2,56,11.5,-9.9
 2004/02/03, 2:30,16,56,11.5,-9.9
 2004/02/03, 2:45,15.9,56,11.4,-9.9
 2004/02/03, 3:00,15.9,56,11.5,-9.9
 2004/02/03, 3:15,15.7,56,11.4,-9.9
 2004/02/03, 3:30,15.5,56,11.4,-9.9
 2004/02/03, 3:45,15.4,56,11.4,-9.9
 2004/02/03, 4:00,15.1,55,11.3,-9.9
 2004/02/03, 4:15,14.9,54,11.3,-9.9
 2004/02/03, 4:30,14.9,53,11.2,-9.9
 2004/02/03, 4:45,14.7,54,11.1,-9.9
 2004/02/03, 5:00,14.8,58,11.1,-9.9
 2004/02/03, 5:15,14.4,56,11.1,-9.9
 2004/02/03, 5:30,14.3,55,11.1,-9.9
 2004/02/03, 5:45,14,55,11,-9.9
 2004/02/03, 6:00,14.3,54,11,-9.9
 2004/02/03, 6:15,15.3,59,10.9,-9.9
 2004/02/03, 6:30,14.9,65,10.8,-9.9
 2004/02/03, 6:45,17.5,57,10.8,-9.9
 2004/02/03, 7:00,19,57,10.7,-9.9
 2004/02/03, 7:15,19.5,57,10.8,-9.9
 2004/02/03, 7:30,19.7,53,11,-9.9
 2004/02/03, 7:45,17.7,49,10.9,-9.9
 2004/02/03, 8:00,16.9,47,11,-9.9
 2004/02/03, 8:15,17.2,46,11.1,-9.9
 2004/02/03, 8:30,19.7,42,10.9,-9.9
 2004/02/03, 8:45,20.1,41,11,-9.9
 2004/02/03, 9:00,20.4,40,11,-9.9
 2004/02/03, 9:15,19.2,41,11.4,-9.9
 2004/02/03, 9:30,18.3,41,11.3,-9.9
 2004/02/03, 9:45,17.5,45,11.5,-9.9
 2004/02/03,10:00,17,45,11.5,-9.9
 2004/02/03,10:15,16.5,44,11.5,-9.9
 2004/02/03,10:30,16.2,45,11.5,-9.9
 2004/02/03,10:45,15.8,45,11.4,-9.9
 2004/02/03,11:00,15.5,46,11.6,-9.9
 2004/02/03,11:15,15.3,45,11.5,-9.9
 2004/02/03,11:30,15.3,45,11.5,-9.9
 2004/02/03,11:45,15,45,11.5,-9.9
 2004/02/03,12:00,14.8,46,11.5,-9.9
 2004/02/03,12:15,14.6,46,11.5,-9.9
 2004/02/03,12:30,14.5,46,11.5,-9.9
 2004/02/03,12:45,14.3,46,11.4,-9.9
 2004/02/03,13:00,14.4,46,11.4,-9.9
 2004/02/03,13:15,14.2,46,11.4,-9.9
 2004/02/03,13:30,14.1,46,11.3,-9.9
 2004/02/03,13:45,13.9,45,11.4,-9.9
 2004/02/03,14:00,13.8,45,11.3,-9.9
 2004/02/03,14:15,13.8,45,11.2,-9.9
 2004/02/03,14:30,14,46,11.2,-9.9
 2004/02/03,14:45,13.8,47,11.1,-9.9
 2004/02/03,15:00,13.8,47,11.1,-9.9
 2004/02/03,15:15,13.6,47,11,-9.9
 2004/02/03,15:30,16.2,48,10.9,-9.9
 2004/02/03,15:45,16.9,47,10.9,-9.9
 2004/02/03,16:00,15.4,47,11.1,-9.9
 2004/02/03,16:15,16.8,47,10.9,-9.9
 2004/02/03,16:30,18.8,46,11.1,-9.9
 2004/02/03,16:45,20.1,46,10.9,-9.9
 2004/02/03,17:00,20.1,48,11,-9.9
 2004/02/03,17:15,18.6,49,10.9,-9.9
 2004/02/03,17:30,17.7,50,10.9,-9.9
 2004/02/03,17:45,17.2,49,10.9,-9.9
 2004/02/03,18:00,19.1,47,10.9,-9.9
 2004/02/03,18:15,20.3,51,10.8,-9.9
 2004/02/03,18:30,20.1,54,10.6,-9.9
 2004/02/03,18:45,20.2,53,10.6,-9.9
 2004/02/03,19:00,21,44,10.6,-9.9
 2004/02/03,19:15,21,41,10.7,-9.9
 2004/02/03,19:30,21.9,38,10.6,-9.9
 2004/02/03,19:45,22,36,10.6,-9.9
 2004/02/03,20:00,21.5,38,10.5,-9.9
 2004/02/03,20:15,21.5,39,10.3,-9.9
 2004/02/03,20:30,21.3,38,10.4,-9.9
 2004/02/03,20:45,21.2,37,10.2,-9.9
 2004/02/03,21:00,19.8,40,10,-9.9
 2004/02/03,21:15,21.1,36,9.9,-9.9
 2004/02/03,21:30,21.1,35,9.8,-9.9
 2004/02/03,21:45,21.2,35,9.6,-9.9
 2004/02/03,22:00,21,33,9.5,-9.9
 2004/02/03,22:15,21,37,9.4,-9.9
 2004/02/03,22:30,20.8,41,9.2,-9.9
 2004/02/03,22:45,20.8,43,9.1,-9.9
 2004/02/03,23:00,20.9,44,9,-9.9
 2004/02/03,23:15,20.7,45,8.8,-9.9
 2004/02/03,23:30,20.3,44,8.9,-9.9
 2004/02/03,23:45,18.9,42,8.6,-9.9
 2004/02/04, 0:00,18.1,40,8.6,-9.9
 2004/02/04, 0:15,17.6,39,8.4,-9.9
 2004/02/04, 0:30,17,38,8.3,-9.9
 2004/02/04, 0:45,16.6,38,8.1,-9.9
 2004/02/04, 1:00,16.1,37,8.1,-9.9
 2004/02/04, 1:15,15.7,37,7.9,-9.9
 2004/02/04, 1:30,15.5,37,7.8,-9.9
 2004/02/04, 1:45,15,37,7.7,-9.9
 2004/02/04, 2:00,14.6,36,7.7,-9.9
 2004/02/04, 2:15,14.2,36,7.5,-9.9
 2004/02/04, 2:30,14,36,7.5,-9.9
 2004/02/04, 2:45,13.6,36,7.4,-9.9
 2004/02/04, 3:00,13.6,36,7.2,-9.9
 2004/02/04, 3:15,13.3,36,7.1,-9.9
 2004/02/04, 3:30,12.9,36,7.1,-9.9
 2004/02/04, 3:45,12.7,37,7,-9.9
 2004/02/04, 4:00,12.4,37,6.8,-9.9
 2004/02/04, 4:15,12.3,36,6.8,-9.9
 2004/02/04, 4:30,12.2,37,6.8,-9.9
 2004/02/04, 4:45,11.9,37,6.7,-9.9
 2004/02/04, 5:00,11.7,37,6.5,-9.9
 2004/02/04, 5:15,11.6,37,6.6,-9.9
 2004/02/04, 5:30,11.3,37,6.5,-9.9
 2004/02/04, 5:45,11.3,37,6.5,-9.9
 2004/02/04, 6:00,11.2,37,6.4,-9.9
 2004/02/04, 6:15,14.1,40,6.5,-9.9
 2004/02/04, 6:30,16.1,42,6.4,-9.9
 2004/02/04, 6:45,17.2,41,6.5,-9.9
 2004/02/04, 7:00,18.4,38,6.5,-9.9
 2004/02/04, 7:15,19.4,38,6.6,-9.9
 2004/02/04, 7:30,20.2,39,6.7,-9.9
 2004/02/04, 7:45,20.4,41,6.7,-9.9
 2004/02/04, 8:00,18.1,42,6.7,-9.9
 2004/02/04, 8:15,16.8,41,6.8,-9.9
 2004/02/04, 8:30,16.1,41,6.9,-9.9
 2004/02/04, 8:45,17.2,40,7,-9.9
 2004/02/04, 9:00,15.1,35,7,-9.9
 2004/02/04, 9:15,14.2,33,7.5,-9.9
 2004/02/04, 9:30,13.9,35,7.8,-9.9
 2004/02/04, 9:45,16.5,37,7.8,-9.9
 2004/02/04,10:00,14.3,38,8.4,-9.9
 2004/02/04,10:15,13.5,37,8.7,-9.9
 2004/02/04,10:30,13.3,37,8.8,-9.9
 2004/02/04,10:45,12.8,38,8.8,-9.9
 2004/02/04,11:00,12.6,38,8.8,-9.9
 2004/02/04,11:15,12.5,38,8.7,-9.9
 2004/02/04,11:30,12.2,39,8.6,-9.9
 2004/02/04,11:45,12.2,38,8.6,-9.9
 2004/02/04,12:00,12,39,8.6,-9.9
 2004/02/04,12:15,12,39,8.6,-9.9
 2004/02/04,12:30,15,42,8.5,-9.9
 2004/02/04,12:45,17.4,44,8.5,-9.9
 2004/02/04,13:00,18.8,46,8.5,-9.9
 2004/02/04,13:15,17.2,47,8.5,-9.9
 2004/02/04,13:30,16.4,47,8.8,-9.9
 2004/02/04,13:45,15.1,40,9,-9.9
 2004/02/04,14:00,14.3,38,8.9,-9.9
 2004/02/04,14:15,13.9,38,9,-9.9
 2004/02/04,14:30,13.4,37,8.9,-9.9
 2004/02/04,14:45,17.3,38,8.9,-9.9
 2004/02/04,15:00,19.2,41,8.9,-9.9
 2004/02/04,15:15,19.5,43,9,-9.9
 2004/02/04,15:30,19.8,39,9.2,-9.9
 2004/02/04,15:45,20,39,9.3,-9.9
 2004/02/04,16:00,20.2,40,9.5,-9.9
 2004/02/04,16:15,20.2,41,9.5,-9.9
 2004/02/04,16:30,20.4,42,9.5,-9.9
 2004/02/04,16:45,20.3,43,9.3,-9.9
 2004/02/04,17:00,20,42,9.9,-9.9
 2004/02/04,17:15,20.3,43,9.5,-9.9
 2004/02/04,17:30,19.8,47,9.5,-9.9
 2004/02/04,17:45,18.8,47,9.6,-9.9
 2004/02/04,18:00,19.6,47,9.4,-9.9
 2004/02/04,18:15,19.7,50,9.4,-9.9
 2004/02/04,18:30,20,49,9.4,-9.9
 2004/02/04,18:45,20.1,48,9.5,-9.9
 2004/02/04,19:00,20.1,48,9.4,-9.9
 2004/02/04,19:15,20.1,48,9.3,-9.9
 2004/02/04,19:30,20.2,49,9.4,-9.9
 2004/02/04,19:45,20,49,9.4,-9.9
 2004/02/04,20:00,20,45,9.5,-9.9
 2004/02/04,20:15,20.1,48,9.4,-9.9
 2004/02/04,20:30,19.7,49,9.5,-9.9
 2004/02/04,20:45,19.9,47,9.4,-9.9
 2004/02/04,21:00,19.2,48,9.2,-9.9
 2004/02/04,21:15,18.6,48,9.3,-9.9
 2004/02/04,21:30,18.5,48,9.2,-9.9
 2004/02/04,21:45,18,48,9.1,-9.9
 2004/02/04,22:00,17.8,48,9,-9.9
 2004/02/04,22:15,17.2,48,8.9,-9.9
 2004/02/04,22:30,16.9,47,8.9,-9.9
 2004/02/04,22:45,16.5,47,8.7,-9.9
 2004/02/04,23:00,16.2,46,8.7,-9.9
 2004/02/04,23:15,15.8,45,8.6,-9.9
 2004/02/04,23:30,15.7,46,8.6,-9.9
 2004/02/04,23:45,15.4,46,8.6,-9.9
 2004/02/05, 0:00,15.2,47,8.5,-9.9
 2004/02/05, 0:15,15.3,51,8.4,-9.9
 2004/02/05, 0:30,14.9,50,8.2,-9.9
 2004/02/05, 0:45,14.6,50,8.1,-9.9
 2004/02/05, 1:00,14.3,49,8,-9.9
 2004/02/05, 1:15,14.2,49,8.1,-9.9
 2004/02/05, 1:30,13.9,49,8,-9.9
 2004/02/05, 1:45,13.7,48,8,-9.9
 2004/02/05, 2:00,13.4,48,7.8,-9.9
 2004/02/05, 2:15,13.3,48,7.8,-9.9
 2004/02/05, 2:30,13.1,48,7.8,-9.9
 2004/02/05, 2:45,13,49,7.7,-9.9
 2004/02/05, 3:00,12.8,49,7.6,-9.9
 2004/02/05, 3:15,12.6,49,7.5,-9.9
 2004/02/05, 3:30,12.4,49,7.4,-9.9
 2004/02/05, 3:45,12.3,49,7.3,-9.9
 2004/02/05, 4:00,12.2,49,7.1,-9.9
 2004/02/05, 4:15,12,49,7.1,-9.9
 2004/02/05, 4:30,11.7,49,7.1,-9.9
 2004/02/05, 4:45,11.7,49,7,-9.9
 2004/02/05, 5:00,11.6,49,6.9,-9.9
 2004/02/05, 5:15,11.4,49,6.8,-9.9
 2004/02/05, 5:30,11.4,49,6.8,-9.9
 2004/02/05, 5:45,11.2,49,6.6,-9.9
 2004/02/05, 6:00,11.3,50,6.7,-9.9
 2004/02/05, 6:15,11.2,56,6.6,-9.9
 2004/02/05, 6:30,14,54,6.5,-9.9
 2004/02/05, 6:45,15.9,52,6.5,-9.9
 2004/02/05, 7:00,17.8,51,6.5,-9.9
 2004/02/05, 7:15,19.4,51,6.6,-9.9
 2004/02/05, 7:30,19.9,50,6.6,-9.9
 2004/02/05, 7:45,19.2,50,6.8,-9.9
 2004/02/05, 8:00,20.4,49,6.8,-9.9
 2004/02/05, 8:15,20.7,48,7,-9.9
 2004/02/05, 8:30,17.6,39,8.3,-9.9
 2004/02/05, 8:45,15.7,35,7.6,-9.9
 2004/02/05, 9:00,14.7,33,7.6,-9.9
 2004/02/05, 9:15,13.9,34,7.7,-9.9
 2004/02/05, 9:30,13.5,38,7.7,-9.9
 2004/02/05, 9:45,13.9,39,8.1,-9.9
 2004/02/05,10:00,13.9,39,8.5,-9.9
 2004/02/05,10:15,13.5,40,8.6,-9.9
 2004/02/05,10:30,13.4,41,8.8,-9.9
 2004/02/05,10:45,13.2,41,8.9,-9.9
 2004/02/05,11:00,12.9,42,8.9,-9.9
 2004/02/05,11:15,12.9,42,8.9,-9.9
 2004/02/05,11:30,12.7,42,8.9,-9.9
 2004/02/05,11:45,12.8,42,8.9,-9.9
 2004/02/05,12:00,12.4,43,8.9,-9.9
 2004/02/05,12:15,12.5,42,8.9,-9.9
 2004/02/05,12:30,12.3,42,8.9,-9.9
 2004/02/05,12:45,12.2,43,8.8,-9.9
 2004/02/05,13:00,12,42,8.6,-9.9
 2004/02/05,13:15,11.8,42,8.7,-9.9
 2004/02/05,13:30,11.7,42,8.9,-9.9
 2004/02/05,13:45,11.5,41,9,-9.9
 2004/02/05,14:00,11.8,43,8.9,-9.9
 2004/02/05,14:15,12.3,43,8.8,-9.9
 2004/02/05,14:30,15.6,43,8.7,-9.9
 2004/02/05,14:45,17.8,43,8.7,-9.9
 2004/02/05,15:00,16.1,43,8.1,-9.9
 2004/02/05,15:15,14.4,42,8.5,-9.9
 2004/02/05,15:30,17.3,42,8.6,-9.9
 2004/02/05,15:45,19.3,46,8.6,-9.9
 2004/02/05,16:00,17.6,46,8.7,-9.9
 2004/02/05,16:15,16.4,46,8.8,-9.9
 2004/02/05,16:30,19.2,44,8.8,-9.9
 2004/02/05,16:45,16.3,42,9.1,-9.9
 2004/02/05,17:00,15.4,40,9.1,-9.9
 2004/02/05,17:15,14.8,39,8.9,-9.9
 2004/02/05,17:30,14.5,43,8.9,-9.9
 2004/02/05,17:45,16.4,43,8.6,-9.9
 2004/02/05,18:00,18.8,45,8.6,-9.9
 2004/02/05,18:15,19.1,40,8.7,-9.9
 2004/02/05,18:30,19.8,38,8.6,-9.9
 2004/02/05,18:45,18.7,35,8.4,-9.9
 2004/02/05,19:00,20,35,8.4,-9.9
 2004/02/05,19:15,20.3,34,8.6,-9.9
 2004/02/05,19:30,20.5,33,8.6,-9.9
 2004/02/05,19:45,20.5,33,8.8,-9.9
 2004/02/05,20:00,20.4,34,9,-9.9
 2004/02/05,20:15,20.8,34,8.8,-9.9
 2004/02/05,20:30,21,34,8.7,-9.9
 2004/02/05,20:45,20.5,34,8.6,-9.9
 2004/02/05,21:00,20.4,36,8.5,-9.9
 2004/02/05,21:15,20.3,37,8.5,-9.9
 2004/02/05,21:30,20.4,40,8.4,-9.9
 2004/02/05,21:45,19.7,42,8.4,-9.9
 2004/02/05,22:00,18.7,45,8.3,-9.9
 2004/02/05,22:15,18.2,47,8.2,-9.9
 2004/02/05,22:30,17.5,46,8.1,-9.9
 2004/02/05,22:45,17,46,8,-9.9
 2004/02/05,23:00,16.4,46,8,-9.9
 2004/02/05,23:15,16.1,46,7.8,-9.9
 2004/02/05,23:30,15.7,46,7.8,-9.9
 2004/02/05,23:45,15.3,45,7.7,-9.9
 2004/02/06, 0:00,15,45,7.4,-9.9
 2004/02/06, 0:15,14.7,45,7.5,-9.9
 2004/02/06, 0:30,14.4,45,7.4,-9.9
 2004/02/06, 0:45,14,45,7.3,-9.9
 2004/02/06, 1:00,13.7,45,7.2,-9.9
 2004/02/06, 1:15,13.5,45,7.1,-9.9
 2004/02/06, 1:30,13.2,45,7.1,-9.9
 2004/02/06, 1:45,12.9,45,7,-9.9
 2004/02/06, 2:00,12.7,45,6.9,-9.9
 2004/02/06, 2:15,12.5,45,6.8,-9.9
 2004/02/06, 2:30,12.5,45,6.8,-9.9
 2004/02/06, 2:45,12.3,45,6.8,-9.9
 2004/02/06, 3:00,12,45,6.7,-9.9
 2004/02/06, 3:15,11.8,45,6.7,-9.9
 2004/02/06, 3:30,11.6,45,6.6,-9.9
 2004/02/06, 3:45,11.3,46,6.5,-9.9
 2004/02/06, 4:00,11.1,46,6.5,-9.9
 2004/02/06, 4:15,10.8,46,6.5,-9.9
 2004/02/06, 4:30,10.7,46,6.3,-9.9
 2004/02/06, 4:45,10.6,46,6.4,-9.9
 2004/02/06, 5:00,10.4,46,6.3,-9.9
 2004/02/06, 5:15,10.3,46,6.3,-9.9
 2004/02/06, 5:30,10.2,46,6.2,-9.9
 2004/02/06, 5:45,10.1,47,6.2,-9.9
 2004/02/06, 6:00,10,47,6.2,-9.9
 2004/02/06, 6:15,9.9,47,6.2,-9.9
 2004/02/06, 6:30,13.7,50,6.2,-9.9
 2004/02/06, 6:45,15.4,50,6.2,-9.9
 2004/02/06, 7:00,17.2,46,6.2,-9.9
 2004/02/06, 7:15,17.5,44,6.4,-9.9
 2004/02/06, 7:30,15.9,46,6.8,-9.9
 2004/02/06, 7:45,17.8,42,6.8,-9.9
 2004/02/06, 8:00,16,45,6.8,-9.9
 2004/02/06, 8:15,15.1,45,7.1,-9.9
 2004/02/06, 8:30,16.7,41,7.2,-9.9
 2004/02/06, 8:45,15.3,44,7.3,-9.9
 2004/02/06, 9:00,13.6,37,7.1,-9.9
 2004/02/06, 9:15,12.9,35,7.3,-9.9
 2004/02/06, 9:30,13.1,38,7.5,-9.9
 2004/02/06, 9:45,12.8,38,7.4,-9.9
 2004/02/06,10:00,12.6,39,7.7,-9.9
 2004/02/06,10:15,12.5,40,8,-9.9
 2004/02/06,10:30,12.3,40,8.1,-9.9
 2004/02/06,10:45,12.1,41,8.2,-9.9
 2004/02/06,11:00,11.8,41,8.2,-9.9
 2004/02/06,11:15,11.8,41,8.1,-9.9
 2004/02/06,11:30,11.8,41,8.1,-9.9
 2004/02/06,11:45,11.6,42,8.1,-9.9
 2004/02/06,12:00,11.5,42,8.1,-9.9
 2004/02/06,12:15,11.4,42,8.1,-9.9
 2004/02/06,12:30,11.3,42,8,-9.9
 2004/02/06,12:45,11.2,42,8,-9.9
 2004/02/06,13:00,11,42,8,-9.9
 2004/02/06,13:15,11,42,8,-9.9
 2004/02/06,13:30,10.9,42,8,-9.9
 2004/02/06,13:45,10.9,42,8,-9.9
 2004/02/06,14:00,10.8,42,8,-9.9
 2004/02/06,14:15,10.8,42,7.3,-9.9
 2004/02/06,14:30,11.8,46,7.8,-9.9
 2004/02/06,14:45,15.9,47,7.8,-9.9
 2004/02/06,15:00,17.8,47,7.9,-9.9
 2004/02/06,15:15,19.2,47,8.1,-9.9
 2004/02/06,15:30,20,47,8.2,-9.9
 2004/02/06,15:45,20,47,8.3,-9.9
 2004/02/06,16:00,20.5,47,8.4,-9.9
 2004/02/06,16:15,20.2,46,8.4,-9.9
 2004/02/06,16:30,20.6,42,8.8,-9.9
 2004/02/06,16:45,20.4,43,8.6,-9.9
 2004/02/06,17:00,18.7,44,8.7,-9.9
 2004/02/06,17:15,17.8,44,8.7,-9.9
 2004/02/06,17:30,17.2,44,8.6,-9.9
 2004/02/06,17:45,16.5,44,8.7,-9.9
 2004/02/06,18:00,16.6,44,8.6,-9.9
 2004/02/06,18:15,18,45,8.5,-9.9
 2004/02/06,18:30,19.9,43,8.5,-9.9
 2004/02/06,18:45,20,39,8.8,-9.9
 2004/02/06,19:00,20,36,9.1,-9.9
 2004/02/06,19:15,20.2,36,9.2,-9.9
 2004/02/06,19:30,21,36,9,-9.9
 2004/02/06,19:45,20.7,35,8.9,-9.9
 2004/02/06,20:00,20.8,37,8.9,-9.9
 2004/02/06,20:15,20.6,37,9,-9.9
 2004/02/06,20:30,20.7,40,8.9,-9.9
 2004/02/06,20:45,20.6,42,8.9,-9.9
 2004/02/06,21:00,20.7,45,8.9,-9.9
 2004/02/06,21:15,19.9,48,8.7,-9.9
 2004/02/06,21:30,18.9,45,8.7,-9.9
 2004/02/06,21:45,18.2,45,8.6,-9.9
 2004/02/06,22:00,17.8,45,8.6,-9.9
 2004/02/06,22:15,17.2,45,8.4,-9.9
 2004/02/06,22:30,16.8,46,8.4,-9.9
 2004/02/06,22:45,16.5,46,8.4,-9.9
 2004/02/06,23:00,16.3,46,8.2,-9.9
 2004/02/06,23:15,15.9,46,8.1,-9.9
 2004/02/06,23:30,15.7,46,8,-9.9
 2004/02/06,23:45,15.3,46,7.8,-9.9
 2004/02/07, 0:00,14.9,47,7.9,-9.9
 2004/02/07, 0:15,15.1,51,7.8,-9.9
 2004/02/07, 0:30,14.5,50,7.7,-9.9
 2004/02/07, 0:45,14.2,49,7.6,-9.9
 2004/02/07, 1:00,13.9,48,7.5,-9.9
 2004/02/07, 1:15,13.6,47,7.6,-9.9
 2004/02/07, 1:30,13.3,45,7.6,-9.9
 2004/02/07, 1:45,13,44,7.6,-9.9
 2004/02/07, 2:00,12.6,43,7.6,-9.9
 2004/02/07, 2:15,12.3,43,7.6,-9.9
 2004/02/07, 2:30,12.1,43,7.5,-9.9
 2004/02/07, 2:45,11.8,42,7.5,-9.9
 2004/02/07, 3:00,11.5,42,7.5,-9.9
 2004/02/07, 3:15,11.4,42,7.4,-9.9
 2004/02/07, 3:30,11.1,42,7.3,-9.9
 2004/02/07, 3:45,11,42,7.2,-9.9
 2004/02/07, 4:00,10.7,42,7.1,-9.9
 2004/02/07, 4:15,10.5,42,7.1,-9.9
 2004/02/07, 4:30,10.3,42,7,-9.9
 2004/02/07, 4:45,10.3,42,6.9,-9.9
 2004/02/07, 5:00,10.3,42,6.8,-9.9
 2004/02/07, 5:15,10.1,42,6.8,-9.9
 2004/02/07, 5:30,9.7,42,6.8,-9.9
 2004/02/07, 5:45,9.8,42,6.7,-9.9
 2004/02/07, 6:00,9.8,42,6.7,-9.9
 2004/02/07, 6:15,9.7,42,6.6,-9.9
 2004/02/07, 6:30,9.6,42,6.5,-9.9
 2004/02/07, 6:45,13.6,47,6.5,-9.9
 2004/02/07, 7:00,11.6,53,6.4,-9.9
 2004/02/07, 7:15,14.4,52,6.4,-9.9
 2004/02/07, 7:30,16.6,51,6.4,-9.9
 2004/02/07, 7:45,18.4,51,6.4,-9.9
 2004/02/07, 8:00,19.6,50,6.5,-9.9
 2004/02/07, 8:15,20.1,50,6.5,-9.9
 2004/02/07, 8:30,21,47,6.8,-9.9
 2004/02/07, 8:45,20.1,38,7,-9.9
 2004/02/07, 9:00,21.6,39,7.2,-9.9
 2004/02/07, 9:15,20.9,40,7.2,-9.9
 2004/02/07, 9:30,20.6,37,7.6,-9.9
 2004/02/07, 9:45,18.4,41,7.5,-9.9
 2004/02/07,10:00,17.4,40,7.5,-9.9
 2004/02/07,10:15,16.6,40,7.5,-9.9
 2004/02/07,10:30,16,40,7.5,-9.9
 2004/02/07,10:45,18,40,7.3,-9.9
 2004/02/07,11:00,19.5,39,7.3,-9.9
 2004/02/07,11:15,20.2,39,7.4,-9.9
 2004/02/07,11:30,20.8,38,7.5,-9.9
 2004/02/07,11:45,18.8,38,7.6,-9.9
 2004/02/07,12:00,17.4,39,7.7,-9.9
 2004/02/07,12:15,17.2,38,7.8,-9.9
 2004/02/07,12:30,20.2,36,7.9,-9.9
 2004/02/07,12:45,19.5,37,8.1,-9.9
 2004/02/07,13:00,19.4,45,8.1,-9.9
 2004/02/07,13:15,20.4,45,8.3,-9.9
 2004/02/07,13:30,20.7,46,8.4,-9.9
 2004/02/07,13:45,20.8,46,8.4,-9.9
 2004/02/07,14:00,21,46,8.5,-9.9
 2004/02/07,14:15,21,43,8.6,-9.9
 2004/02/07,14:30,21.1,43,8.5,-9.9
 2004/02/07,14:45,20.9,41,8.8,-9.9
 2004/02/07,15:00,20.9,41,8.8,-9.9
 2004/02/07,15:15,20.9,41,8.9,-9.9
 2004/02/07,15:30,20.6,40,8.9,-9.9
 2004/02/07,15:45,19,41,8.9,-9.9
 2004/02/07,16:00,18.1,40,8.3,-9.9
 2004/02/07,16:15,17.6,40,8.6,-9.9
 2004/02/07,16:30,17.2,40,8.6,-9.9
 2004/02/07,16:45,16.8,40,8.6,-9.9
 2004/02/07,17:00,16.3,40,8.6,-9.9
 2004/02/07,17:15,16.1,40,8.5,-9.9
 2004/02/07,17:30,15.9,40,8.3,-9.9
 2004/02/07,17:45,15.5,41,8.4,-9.9
 2004/02/07,18:00,18,41,8.4,-9.9
 2004/02/07,18:15,20.1,42,8.3,-9.9
 2004/02/07,18:30,20.6,42,8.4,-9.9
 2004/02/07,18:45,21.3,43,8.5,-9.9
 2004/02/07,19:00,21.2,45,8.5,-9.9
 2004/02/07,19:15,21.6,45,8.5,-9.9
 2004/02/07,19:30,22.1,44,8.5,-9.9
 2004/02/07,19:45,22.2,41,8.5,-9.9
 2004/02/07,20:00,22,39,8.4,-9.9
 2004/02/07,20:15,22.5,37,8.5,-9.9
 2004/02/07,20:30,22.3,36,8.5,-9.9
 2004/02/07,20:45,22.8,35,8.5,-9.9
 2004/02/07,21:00,21.1,35,8.4,-9.9
 2004/02/07,21:15,20.1,35,8.4,-9.9
 2004/02/07,21:30,20.3,33,8.4,-9.9
 2004/02/07,21:45,22,34,8.3,-9.9
 2004/02/07,22:00,22.4,35,8.2,-9.9